Location: Alma
(38.7220°N, 88.9090°W)
Time: 00:18:20
(UTC-06:00)

Vanguard 2 Rocket - Pass Details

Date: 16 November 2019
Orbit: 554 x 3326 km, 32.9° (Epoch: 05 December)

Event Time Altitude Azimuth Distance (km) Brightness Sun altitude
Rises 01:29:32 0° 231° (SW) 2,781 - -59.0°
Reaches altitude 10° 01:31:42 10° 220° (SW) 1,991 - -58.6°
Maximum altitude 01:35:38 31° 157° (SSE) 1,311 - -58.0°
Drops below altitude 10° 01:41:13 10° 97° (E) 2,868 - -57.0°
Exits shadow 01:42:46 - 92° (E) 3,440 10.2 -56.8°
Sets 01:45:00 0° 88° (E) 4,270 10.8 -56.4°
